Regional Weather Roundup
Issued by NWS

Home | Current Version | Previous Version | Graphics & Text | Print | Product List | Glossary Off
Versions: 1 2 3 4 5 6 7 8 9 10 11 12 13 14 15 16 17 18 19 20 21 22 23 24 25 26 27 28 29 30 31 32 33 34 35 36 37 38 39 40 41 42 43 44 45 46 47 48 49 50

000
ASUS43 KTOP 271759
RWRKS

WEATHER ROUNDUP FOR KANSAS
NATIONAL WEATHER SERVICE GOODLAND KS
100 PM CDT THU APR 27 2017

NOTE:  "FAIR" INDICATES FEW OR NO CLOUDS BELOW 12,000 FEET WITH NO
SIGNIFICANT WEATHER AND/OR OBSTRUCTIONS TO VISIBILITY.

KSZ001>006-013>018-027>032-041>047-271900-
NORTHWEST KANSAS

CITY           SKY/WX    TMP DP  RH WIND       PRES   REMARKS
GOODLAND       PTSUNNY   61  36  39 SE17G29   29.52F
6HR MIN TEMP:  36; 6HR MAX TEMP:  61;

HAYS           CLOUDY    52  38  58 SE15      29.65F
HILL CITY      CLOUDY    53  37  54 SE13G22   29.65F
6HR MIN TEMP:  28; 6HR MAX TEMP:  55; 6HR PCP: TRACE;

RUSSELL        CLOUDY    55  38  52 SE15      29.66F
6HR MIN TEMP:  31; 6HR MAX TEMP:  56;

$$

KSZ061>065-074>080-084>089-271900-
SOUTHWEST KANSAS

CITY           SKY/WX    TMP DP  RH WIND       PRES   REMARKS
DODGE CITY     CLOUDY    62  39  42 SE24G32   29.59F
6HR MIN TEMP:  41; 6HR MAX TEMP:  62;

ELKHART          N/A    N/A N/A N/A MISG        N/A
GARDEN CITY    CLOUDY    60  37  42 S20G29    29.56F
6HR MIN TEMP:  41; 6HR MAX TEMP:  60;

GREAT BEND     CLOUDY    53  39  59 SE15      29.67F
LIBERAL        CLOUDY    65  40  39 S23G33    29.52F
$$

KSZ066>073-081>083-090>101-271900-
SOUTHEAST KANSAS

CITY           SKY/WX    TMP DP  RH WIND       PRES   REMARKS
CHANUTE        MOSUNNY   61  44  53 VRB5      29.76F
6HR MIN TEMP:  36; 6HR MAX TEMP:  61;

COFFEYVILLE    SUNNY     61  45  55 VRB6      29.79R
6HR MIN TEMP:  38; 6HR MAX TEMP:  61;

HUTCHINSON     CLOUDY    59  40  49 SE14      29.71F
6HR MIN TEMP:  34; 6HR MAX TEMP:  59; 6HR PCP: TRACE;

MEDICINE LODGE   N/A     60  39  45 SE15G23   29.66F
NEWTON         MOSUNNY   58  41  53 S10       29.73F
PARSONS        MOSUNNY   59  43  55 VRB6      29.80R
6HR MIN TEMP:  36; 6HR MAX TEMP:  59;

WICHITA INTL   CLOUDY    60  43  53 S17G23    29.71F
6HR MIN TEMP:  35; 6HR MAX TEMP:  61;

WICHITA JABRA  PTSUNNY   61  42  49 S17G23    29.72F
6HR MIN TEMP:  35; 6HR MAX TEMP:  61;

WINFIELD       SUNNY     61  42  49 S14       29.74F
6HR MIN TEMP:  33; 6HR MAX TEMP:  63;

$$

KSZ007>012-019>026-033>040-048>060-102>105-271900-
NORTHEAST KANSAS

CITY           SKY/WX    TMP DP  RH WIND       PRES   REMARKS
CONCORDIA      CLOUDY    54  38  54 S7        29.71F
6HR MIN TEMP:  31; 6HR MAX TEMP:  55;

EMPORIA        SUNNY     56  38  50 CALM      29.74F
6HR MIN TEMP:  34; 6HR MAX TEMP:  57;

LAWRENCE       SUNNY     57  36  45 CALM      29.75F
6HR MIN TEMP:  36; 6HR MAX TEMP:  58;

MANHATTAN      SUNNY     58  35  42 VRB6      29.73F
6HR MIN TEMP:  31; 6HR MAX TEMP:  58;

OLATHE IND     SUNNY     56  39  53 CALM      29.76F
6HR MIN TEMP:  38; 6HR MAX TEMP:  56;

OLATHE EXE     SUNNY     54  39  57 W7        29.76F
6HR MIN TEMP:  40; 6HR MAX TEMP:  55;

SALINA         PTSUNNY   58  37  45 SE10      29.72F
6HR MIN TEMP:  32; 6HR MAX TEMP:  59;

TOPEKA BILLARD SUNNY     58  35  42 W8        29.75F
6HR MIN TEMP:  37; 6HR MAX TEMP:  58;

TOPEKA FORBES  SUNNY     59  35  40 MISG      29.75F
6HR MIN TEMP:  36; 6HR MAX TEMP:  59;

$$



USA.gov is the U.S. government's official web portal to all federal, state and local government web resources and services.